#timestamp,LO_Frequency,Hit 
1498158015.4,286047004.5,N
1498158035.2,286047006.9,N
1498158055.0,286047006.5,N
1498158055.9,286047006.5,N
1498158075.8,286047008.0,Y
1498158095.6,286047006.0,N
1498158115.4,286047005.4,N
1498158135.3,286047005.7,N
1498158155.1,286047005.2,N
1498158156.0,286047005.2,N
1498158175.8,286047004.8,N
1498158195.7,286047004.7,N
1498158215.5,286047005.0,N
1498158235.3,286047004.8,N
1498158255.1,286047004.8,N
1498158275.9,286047006.7,N
1498158295.7,286047006.1,N
1498158315.5,286047006.8,N
1498158335.4,286047006.2,N
1498158355.2,286047008.5,Y
1498158375.0,286047003.5,N
1498158375.9,286047003.5,N
1498158395.8,286047003.3,N
1498158415.6,286047003.7,N
1498158435.4,286047002.9,N
1498158455.3,286047004.2,N
1498158475.1,286047006.0,N
1498158476.0,286047006.0,N
1498158495.8,286047003.2,N
1498158515.7,286047003.2,N
1498158535.5,286047005.1,N
1498158555.3,286047007.4,N
1498158575.2,286047007.2,N
1498158595.9,286047007.3,N
1498158615.7,286047006.2,N
1498158635.5,286047007.1,N
1498158655.4,286047004.5,N
1498158675.2,286047007.0,N
1498158695.0,286047008.1,Y
1498158696.0,286047008.1,Y
1498158715.8,286047000.0,N
1498158735.6,286047002.7,N
1498158755.5,286047000.5,N
1498158775.3,286046999.0,N
1498158795.1,286047001.2,N
1498158815.8,286046998.2,N
1498158835.7,286047000.2,N
1498158855.5,286046999.9,N
1498158875.3,286047001.5,N
1498158895.2,286047001.9,N
1498158915.9,286046999.7,N
1498158935.7,286047003.9,N
1498158955.6,286047005.6,N
1498158975.4,286047005.9,N
1498158995.2,286047003.8,N
1498159015.1,286047003.5,N
1498159016.0,286047003.5,N
1498159035.8,286047005.4,N
1498159055.6,286047004.5,N
1498159075.4,286047007.6,N
1498159095.3,286047005.1,N
1498159115.1,286047007.3,N
1498159135.8,286047005.0,N
1498159155.7,286047007.1,N
1498159175.5,286047004.6,N
1498159195.3,286047006.4,N
1498159215.2,286047006.6,N
1498159235.9,286047006.5,N
1498159255.7,286047006.4,N
1498159275.6,286047008.6,Y
1498159295.4,286047003.4,N
1498159315.2,286047004.1,N
1498159335.1,286047003.5,N
1498159336.0,286047003.5,N
1498159355.8,286047003.0,N
1498159375.6,286047003.4,N
1498159395.5,286047004.5,N
1498159415.3,286047007.5,N
1498159435.1,286047006.9,N
1498159455.8,286047005.7,N
1498159475.7,286047006.5,N
1498159495.5,286047007.0,N
1498159515.3,286047004.5,N
1498159535.2,286047007.1,N
1498159555.9,286047009.1,Y
1498159575.7,286047004.3,N
1498159595.6,286047004.2,N
1498159615.4,286047003.1,N
1498159635.2,286047003.7,N
1498159655.1,286047003.4,N
1498159656.0,286047003.4,N
1498159675.8,286047004.7,N
1498159695.6,286047003.5,N
1498159715.5,286047004.1,N
1498159735.3,286047003.4,N
1498159755.1,286047006.0,N
1498159775.8,286047002.9,N
1498159795.7,286047005.1,N
1498159815.5,286047004.7,N
1498159835.3,286047004.6,N
1498159855.2,286047004.8,N
1498159875.9,286047005.0,N
1498159895.7,286047007.6,N
1498159915.6,286047005.7,N
1498159935.4,286047004.6,N
1498159955.2,286047006.7,N
1498159975.1,286047006.6,N
1498159976.0,286047006.6,N
1498159995.8,286047006.9,N
1498160015.6,286047008.5,Y
1498160035.5,286047003.9,N
1498160055.3,286047006.0,N
1498160075.1,286047005.9,N
1498160095.9,286047005.9,N
1498160115.7,286047002.9,N
1498160135.5,286047003.8,N
1498160155.3,286047004.0,N
1498160175.2,286047003.2,N
1498160195.0,286047005.5,N
1498160195.9,286047005.5,N
1498160215.7,286047003.7,N
1498160235.6,286047003.8,N
1498160255.4,286047004.4,N
1498160275.2,286047001.4,N
1498160295.1,286047003.6,N
1498160296.0,286047003.6,N
1498160315.8,286047007.6,N
1498160335.6,286047007.6,N
1498160355.5,286047006.7,N
1498160375.3,286047006.8,N
1498160395.1,286047006.8,N
1498160415.9,286047007.4,N
1498160435.7,286047008.8,Y
1498160455.5,286047004.1,N
1498160475.4,286047003.1,N
1498160495.2,286047003.4,N
1498160515.0,286047005.7,N
1498160515.9,286047005.7,N
1498160535.8,286047003.0,N
1498160555.6,286047005.7,N
1498160575.4,286047005.5,N
1498160595.2,286047002.9,N
1498160615.1,286047005.0,N
1498160616.0,286047005.0,N
1498160635.8,286047005.9,N
1498160655.6,286047005.4,N
1498160675.5,286047005.5,N
1498160695.3,286047006.0,N
1498160715.1,286047004.6,N
1498160735.9,286047007.1,N
1498160755.7,286047006.8,N
1498160775.5,286047006.8,N
1498160795.4,286047007.1,N
1498160815.2,286047006.9,N
1498160835.0,286047007.4,N
1498160835.9,286047007.4,N
1498160855.8,286047007.0,N
1498160875.6,286047006.6,N
1498160895.4,286047007.3,N
1498160915.2,286047007.3,N
1498160935.1,286047008.8,Y
1498160936.0,286047008.8,Y
1498160955.8,286046998.7,N
1498160975.7,286046998.7,N
1498160995.5,286046998.8,N
1498161015.3,286046999.1,N
1498161035.2,286046997.2,N
1498161055.9,286046998.7,N
1498161075.7,286046996.7,N
1498161095.5,286046996.8,N
1498161115.4,286046999.2,N
1498161135.2,286047001.2,N
1498161155.0,286047000.6,N
1498161155.9,286047000.6,N
1498161175.8,286047001.0,N
1498161195.6,286047000.8,N
1498161215.4,286047000.3,N
1498161235.3,286046999.7,N
1498161255.1,286047000.6,N
1498161256.0,286047000.6,N
1498161275.8,286047000.4,N
1498161295.7,286047002.8,N
1498161315.5,286047000.0,N
1498161335.3,286047000.6,N
1498161355.2,286047002.8,N
1498161375.9,286046999.8,N
1498161395.7,286047002.7,N
1498161415.5,286047001.7,N
1498161435.4,286047002.6,N
1498161455.2,286047004.4,N
1498161475.0,286047002.1,N
1498161475.9,286047002.1,N
1498161495.8,286047001.8,N
1498161515.6,286047001.5,N
1498161535.4,286047004.2,N
1498161555.3,286047001.4,N
1498161575.1,286047002.3,N
1498161576.0,286047002.3,N
1498161595.8,286047001.3,N
